Weather History for Oceana NAS, VA

Change the Weather History Date:

Friday, August 2, 2013

  Actual Average Record
Temperature  
Mean Temperature 77 °F -  
Max Temperature 86 °F 83 °F 100 °F (2006)
Min Temperature 68 °F 68 °F 61 °F (1997)
Cooling Degree Days 12    
Growing Degree Days 27 (Base 50)    
Moisture  
Dew Point 71 °F    
Average Humidity 79    
Maximum Humidity 96    
Minimum Humidity 55    
Precipitation  
Precipitation 0.00 in - - ()
Sea Level Pressure  
Sea Level Pressure 29.95 in    
Wind  
Wind Speed 7 mph (SW)    
Max Wind Speed 13 mph    
Max Gust Speed -    
Visibility 10 miles    
Events      
Averages and records for this station are not official NWS values.
T = Trace of Precipitation, MM = Missing Value Source: NWS Daily Summary

Daily Weather History Graph

Daily Weather History Graph

Search for Another Location

Airport:

Trip Planner

Search our weather history database for the weather conditions in past years. The results will help you decide how hot, cold, wet, or windy it might be!

Date:

Astronomy

Aug. 02, 2013 Rise Set
Actual Time 6:10 AM EDT 8:09 PM EDT
Civil Twilight 5:42 AM EDT 8:37 PM EDT
Nautical Twilight 5:07 AM EDT 9:12 PM EDT
Astronomical Twilight 4:30 AM EDT 9:49 PM EDT
Moon 2:30 AM EDT (8/2) 5:04 PM EDT (8/2)
Length of Visible Light 14h 55m
Length of Day
13h 58m
Waning Crescent, 16% of the Moon is Illuminated
Aug 2
Waning Crescent
Aug 6
New
Aug 14
First Quarter
Aug 20
Full
Aug 28
Last Quarter

Hourly Weather History & Observations

Time (EDT) Temp. Heat Index Dew Point Humidity Pressure Visibility Wind Dir Wind Speed Gust Speed Precip Events Conditions
12:56 AM 69.1 °F - 66.0 °F 90% 29.89 in 10.0 mi WSW 9.2 mph - N/A   Overcast
1:56 AM 68.0 °F - 66.0 °F 93% 29.87 in 10.0 mi WSW 5.8 mph - N/A   Scattered Clouds
2:56 AM 69.1 °F - 66.9 °F 93% 29.88 in 10.0 mi WSW 9.2 mph - N/A   Scattered Clouds
3:56 AM 69.1 °F - 68.0 °F 96% 29.88 in 10.0 mi West 8.1 mph - N/A   Partly Cloudy
4:56 AM 69.1 °F - 68.0 °F 96% 29.89 in 10.0 mi WNW 4.6 mph - N/A   Clear
5:56 AM 68.0 °F - 66.0 °F 93% 29.92 in 10.0 mi West 5.8 mph - N/A   Scattered Clouds
6:56 AM 69.1 °F - 68.0 °F 96% 29.94 in 10.0 mi WSW 5.8 mph - N/A   Scattered Clouds
7:56 AM 73.0 °F - 70.0 °F 90% 29.95 in 10.0 mi NW 4.6 mph - N/A   Mostly Cloudy
8:56 AM 77.0 °F - 71.1 °F 82% 29.97 in 10.0 mi WNW 6.9 mph - N/A   Scattered Clouds
9:56 AM 80.1 °F 83.2 °F 70.0 °F 71% 29.98 in 10.0 mi NW 4.6 mph - N/A   Mostly Cloudy
10:56 AM 84.0 °F 86.3 °F 66.0 °F 55% 29.99 in 10.0 mi Calm Calm - N/A   Scattered Clouds
11:56 AM 82.9 °F 88.0 °F 72.0 °F 69% 29.99 in 10.0 mi East 8.1 mph - N/A   Scattered Clouds
12:56 PM 84.0 °F 91.2 °F 73.9 °F 72% 29.99 in 10.0 mi SE 11.5 mph - N/A   Scattered Clouds
1:56 PM 82.0 °F 85.5 °F 69.1 °F 65% 29.99 in 10.0 mi East 12.7 mph - N/A   Mostly Cloudy
2:56 PM 84.0 °F 88.4 °F 70.0 °F 63% 29.98 in 10.0 mi ESE 9.2 mph - N/A   Mostly Cloudy
3:56 PM 86.0 °F 93.0 °F 73.0 °F 65% 29.96 in 10.0 mi SE 10.4 mph - N/A   Mostly Cloudy
4:56 PM 82.9 °F 89.4 °F 73.9 °F 74% 29.96 in 10.0 mi SSE 10.4 mph - N/A   Mostly Cloudy
5:56 PM 82.9 °F 89.4 °F 73.9 °F 74% 29.95 in 10.0 mi Variable 5.8 mph - N/A   Scattered Clouds
6:56 PM 84.0 °F 91.2 °F 73.9 °F 72% 29.95 in 10.0 mi Calm Calm - N/A   Mostly Cloudy
7:56 PM 82.9 °F 89.4 °F 73.9 °F 74% 29.96 in 10.0 mi SSW 9.2 mph - N/A   Scattered Clouds
8:56 PM 82.0 °F 87.9 °F 73.9 °F 76% 29.98 in 10.0 mi SSW 9.2 mph - N/A   Mostly Cloudy
9:56 PM 80.1 °F 84.5 °F 73.9 °F 81% 30.00 in 10.0 mi SW 9.2 mph - N/A   Mostly Cloudy
10:56 PM 80.1 °F 84.5 °F 73.9 °F 81% 29.99 in 10.0 mi SSW 8.1 mph - N/A   Mostly Cloudy
11:56 PM 78.1 °F - 73.9 °F 87% 29.99 in 10.0 mi SW 10.4 mph - N/A   Mostly Cloudy